Airfield :
LOGIN :

Register | Disclaimer

   EN    FR    IT 

 










Legend :    VFR   Marginal VFR   IFR   Intensive IFR   Very Intensive IFR
Visi :
Ceiling :
>= 8 km
>= 3000ft
5 to 8 km
1000 to 3000 ft
1500m to 5 km
500 to 1000 ft
800 to 1500m
200 to 500 ft
< 800m
< 200 ft
Symbols :   Thunderstorms  Fog  Heavy snow  Heavy precipitations  Wind > 20 kt
SIGMETs :     Misc.  Thunderstorms  Icing  Turbulence  Mountain Waves  Volcanic Ashes







- Airport Elevation : 284 ft


EGUW - RAF Wattisham

CURRENT METAR :
  • 142050Z 27004KT 9999 BKN045 19/14 Q1016 BLU NOSIG

EXPIRED METARs :
  • 141950Z 27005KT CAVOK 19/14 Q1016 BLU NOSIG
  • 141850Z 28006KT CAVOK 21/13 Q1016 BLU NOSIG

TAF TAF EGUW
Valid from the 14 at 21:00 until the 15 at 02:00 UTC


141931Z 1421/1502 25008KT 9999 BKN045
No reported NOTAMs for that airfield.



MET'MAP, your aeronautical weather chart ! - Copyright ORBIFLY December 2007 - Disclaimer

ORBIFLY MET'MAP TEAM :

Programming & Development : Alexandra Zaïnal
Concept & Development : Baudouin d'Aumeries
Co-Development & Prog : Marc-Olivier Méhu
Technical & hardware support : Manuel Goepfert

Contact : metmap@orbifly.com




SOURCES & CREDITS :

   NOAA